This is the latest recevied weather packets stored in our database for station/object VK6DUG. If no packets are shown the sender has not sent any weather packets the latest 10 day(s).
| Time | Temp. | Humidity | Pressure | Rain* | Wind** | Luminosity | Snow |
|---|---|---|---|---|---|---|---|
| 1777443621 | 20° C | 76% | 1016.7 hPa | 0 mm | - | 419 W/m² | - |
| 1777443019 | 20° C | 77% | 1016.8 hPa | 0 mm | - | 333 W/m² | - |
| 1777442416 | 20° C | 77% | 1016.8 hPa | 0 mm | - | 218 W/m² | - |
| 1777441834 | 20° C | 78% | 1016.9 hPa | 0 mm | - | 176 W/m² | - |
| 1777441232 | 20° C | 78% | 1017 hPa | 0 mm | - | 295 W/m² | - |
| 1777440629 | 20° C | 79% | 1017.1 hPa | 0 mm | - | 419 W/m² | - |
| 1777440026 | 20° C | 81% | 1017.2 hPa | 0 mm | - | 306 W/m² | - |
| 1777439424 | 19.44° C | 83% | 1017.2 hPa | 0 mm | - | 474 W/m² | - |
| 1777438821 | 19.44° C | 84% | 1017.4 hPa | 0 mm | - | 368 W/m² | - |
| 1777438219 | 19.44° C | 84% | 1017.3 hPa | 0 mm | - | 340 W/m² | - |
| 1777437617 | 19.44° C | 83% | 1017.6 hPa | 0 mm | - | 354 W/m² | - |
| 1777437035 | 19.44° C | 83% | 1017.9 hPa | 0 mm | - | 279 W/m² | - |
| 1777436432 | 19.44° C | 83% | 1018.1 hPa | 0 mm | - | 168 W/m² | - |
| 1777435830 | 20° C | 82% | 1018.1 hPa | 0 mm | - | 125 W/m² | - |
| 1777435228 | 20° C | 81% | 1018.2 hPa | 0 mm | - | 140 W/m² | - |
| 1777434626 | 20° C | 81% | 1018.4 hPa | 0 mm | - | 139 W/m² | - |
| 1777434023 | 20° C | 82% | 1018.3 hPa | 0 mm | - | 230 W/m² | - |
| 1777433421 | 20° C | 83% | 1018.4 hPa | 0 mm | - | 280 W/m² | - |
| 1777432819 | 19.44° C | 85% | 1018.4 hPa | 0 mm | - | 440 W/m² | - |
| 1777432216 | 18.89° C | 86% | 1018.4 hPa | 0 mm | - | 327 W/m² | - |
| 1777431634 | 18.33° C | 88% | 1018.3 hPa | 0 mm | - | 286 W/m² | - |
| 1777431031 | 18.33° C | 91% | 1018.4 hPa | 0 mm | - | 240 W/m² | - |
| 1777430428 | 17.78° C | 94% | 1018.5 hPa | 0 mm | - | 188 W/m² | - |
| 1777429826 | 17.22° C | 96% | 1018.4 hPa | 0 mm | - | 259 W/m² | - |
| 1777429223 | 16.67° C | 97% | 1018.6 hPa | 0 mm | - | 272 W/m² | - |
* Rain latest hour (hover to see other rain measurements)
** Current wind speed in m/s (hover to see current wind gust speed)